Location: Wiesbaden
(50.0830°N, 8.2500°E)
Time: 20:32:24
(UTC+02:00)

ISS - Pass Details

Date: 21 July 2019
Orbit: 409 x 418 km, 51.6° (Epoch: 20 July)

Event Time Altitude Azimuth Distance (km) Brightness Sun altitude
Rises 00:36:36 0° 276° (W) 2,352 0.3 -18.2°
Reaches altitude 10° 00:38:42 10° 280° (W) 1,488 -0.7 -18.3°
Maximum altitude 00:42:01 65° 2° (N) 460 -3.4 -18.4°
Enters shadow 00:45:17 10° 86° (E) 1,461 -1.1 -18.5°
